Content
SEND FEEDBACK

Daily
Averages
Monthly
Summary
United States of America

ASHEVILLE, NORTH CAROLINA


Home > North America > United States > North Carolina
Elevation: 2240 feet     Latitude: 35 36N     Longitude: 082 32W

WEATHER
 
SELECT A DAY
Number of Records: 226,813;   Date Range: 1/1/95 - 9/19/14
 
SHARE

PRINT THIS DATA

[ ← Previous Day ]
WEATHER ALMANAC - MARCH 6, 2013
[ Next Day → ]
[ °C ]   °F
Weather ElementAverageHighLow
Temperature30.4 °F35.1 °F (10:54 am)27 °F (6:54 am)
Dewpoint22.4 °F25 °F (1:54 am)19 °F (3:54 am)
Humidity72.6 %82 % (10:54 pm)52 % (10:54 am)
Barometer29.93 in30.17 in (11:54 pm)29.69 in (1:54 am)
Wind Speed17.5 mph25.3 mph (10:54 am)
Wind Gust46 mph (10:54 am)
Weather ElementAverage
Visibility9.3 mi
Wind DirectionWNW (296.9 °)

Weather ElementTotal
Precipitation---
Heating Degree Days34 (Base 65)
Averaged from 29 records on March 6, 2013
WEATHER CONDITIONS BREAKOUT
WIND DIRECTION BREAKOUT
WEATHER BY HOUR - MARCH 6, 2013
[ °C ]   °F
Local TimeTemperatureDewpointHumidityBarometerVisibilityWind DirectionWind SpeedGust SpeedPrecipitationEventsConditions
1:54 AM32.0 °F25.0 °F75 %29.69 in3.0 miNW (310°)15.0 mph28.8 mph0.00 inSnowLight Snow
2:28 AM30.2 °F21.2 °F69 %29.69 in10.0 miNNW (330°)19.6 mph27.6 mph0.00 inMostly Cloudy
2:54 AM30.9 °F21.0 °F67 %29.70 in10.0 miNNW (330°)17.3 mph27.6 mph0.00 inOvercast
3:54 AM30.0 °F19.0 °F64 %29.69 in10.0 miNNW (330°)10.4 mph17.3 mphMostly Cloudy
4:54 AM28.0 °F21.9 °F78 %29.72 in3.0 miNNW (330°)17.3 mph32.2 mph0.00 inSnowLight Snow
5:54 AM28.0 °F19.9 °F72 %29.74 in7.0 miNW (320°)19.6 mph26.5 mph0.00 inSnowLight Snow
6:54 AM27.0 °F19.9 °F75 %29.76 in9.0 miNNW (340°)13.8 mph0.00 inSnowLight Snow
7:54 AM28.0 °F21.0 °F75 %29.78 in10.0 miNNW (340°)18.4 mph27.6 mph0.00 inSnowLight Snow
8:54 AM28.9 °F21.9 °F75 %29.79 in9.0 miNorth (350°)18.4 mph29.9 mph0.00 inOvercast
9:54 AM34.0 °F19.9 °F56 %29.81 in10.0 miNNW (340°)23.0 mph35.7 mphScattered Clouds
10:54 AM35.1 °F19.0 °F52 %29.86 in10.0 miNNW (340°)25.3 mph46.0 mphScattered Clouds
11:54 AM34.0 °F21.0 °F59 %29.90 in10.0 miNorth (350°)18.4 mph34.5 mphOvercast
12:38 PM32.0 °F21.2 °F64 %29.90 in10.0 miNorth (360°)17.3 mph29.9 mphOvercast
12:54 PM32.0 °F21.9 °F66 %29.93 in10.0 miNorth (350°)16.1 mph26.5 mphOvercast
1:08 PM32.0 °F21.2 °F64 %29.91 in10.0 miNNW (340°)16.1 mph35.7 mphOvercast
1:54 PM30.9 °F21.9 °F69 %29.96 in10.0 miNNW (340°)18.4 mph28.8 mphOvercast
2:54 PM30.9 °F23.0 °F72 %29.99 in10.0 miNorth (350°)16.1 mph27.6 mph0.00 inOvercast
3:54 PM30.0 °F24.1 °F79 %30.04 in10.0 miNorth (10°)15.0 mph24.2 mph0.00 inOvercast
4:54 PM30.0 °F24.1 °F79 %30.07 in10.0 miNorth (360°)13.8 mph24.2 mphOvercast
5:18 PM30.2 °F24.8 °F80 %30.03 in10.0 miNorth (10°)17.3 mph26.5 mphOvercast
5:54 PM30.0 °F24.1 °F79 %30.09 in10.0 miNorth (360°)17.3 mph24.2 mphOvercast
6:46 PM30.2 °F24.8 °F80 %30.08 in10.0 miNorth (10°)15.0 mph28.8 mphOvercast
6:54 PM30.0 °F24.1 °F79 %30.12 in10.0 miNorth (10°)17.3 mph26.5 mphOvercast
7:36 PM30.2 °F24.8 °F80 %30.09 in10.0 miNorth (350°)15.0 mph32.2 mphOvercast
7:54 PM30.0 °F24.1 °F79 %30.13 in10.0 miNorth (350°)20.7 mph27.6 mphOvercast
8:54 PM30.0 °F24.1 °F79 %30.13 in10.0 miNorth (360°)18.4 mph29.9 mphOvercast
9:54 PM30.0 °F24.1 °F79 %30.13 in10.0 miNNW (340°)23.0 mph31.1 mphOvercast
10:54 PM28.9 °F24.1 °F82 %30.16 in10.0 miNorth (360°)12.7 mph21.9 mphOvercast
11:54 PM28.9 °F23.0 °F78 %30.17 in10.0 miNNW (340°)20.7 mph26.5 mphOvercast
Hourly data recorded from KAVL, located miles away from Asheville, North Carolina







STORIES FROM OUR PARTNERS